This is the latest recevied weather packets stored in our database for station/object WX5RP. If no packets are shown the sender has not sent any weather packets the latest 10 day(s).
| Time | Temp. | Humidity | Pressure | Rain* | Wind** | Luminosity | Snow |
|---|---|---|---|---|---|---|---|
| 1778205916 | 21.11° C | 23% | 1016.5 hPa | 0 mm | - | 107 W/m² | - |
| 1778205316 | 21.67° C | 23% | 1016.2 hPa | 0 mm | - | 146 W/m² | - |
| 1778204716 | 21.67° C | 23% | 1015.9 hPa | 0 mm | - | 149 W/m² | - |
| 1778204116 | 22.22° C | 23% | 1015.9 hPa | 0 mm | - | 146 W/m² | - |
| 1778203516 | 22.22° C | 23% | 1015.6 hPa | 0 mm | - | 107 W/m² | - |
| 1778202916 | 22.78° C | 21% | 1015.5 hPa | 0 mm | - | 131 W/m² | - |
| 1778202316 | 22.78° C | 22% | 1016.4 hPa | 0 mm | - | 213 W/m² | - |
| 1778201716 | 23.33° C | 23% | 1016 hPa | 0 mm | - | 258 W/m² | - |
| 1778201116 | 23.33° C | 20% | 1016 hPa | 0 mm | - | 267 W/m² | - |
| 1778200516 | 23.89° C | 21% | 1016.2 hPa | 0 mm | - | 324 W/m² | - |
| 1778199916 | 23.89° C | 20% | 1015.8 hPa | 0 mm | - | 452 W/m² | - |
| 1778199316 | 23.89° C | 19% | 1016.1 hPa | 0 mm | - | 484 W/m² | - |
| 1778198716 | 24.44° C | 21% | 1016 hPa | 0 mm | - | 514 W/m² | - |
| 1778198115 | 24.44° C | 20% | 1016.3 hPa | 0 mm | - | 550 W/m² | - |
| 1778197516 | 24.44° C | 19% | 1016.6 hPa | 0 mm | - | 573 W/m² | - |
| 1778196916 | 24.44° C | 22% | 1016.7 hPa | 0 mm | - | 605 W/m² | - |
| 1778196315 | 24.44° C | 16% | 1016.9 hPa | 0 mm | - | 628 W/m² | - |
| 1778195715 | 25° C | 18% | 1016.9 hPa | 0 mm | - | 657 W/m² | - |
| 1778195116 | 25° C | 20% | 1015.9 hPa | 0 mm | - | 687 W/m² | - |
| 1778194515 | 25° C | 17% | 1015.9 hPa | 0 mm | - | 710 W/m² | - |
| 1778193917 | 25° C | 19% | 1015.9 hPa | 0 mm | - | 744 W/m² | - |
| 1778193318 | 24.44° C | 17% | 1015.7 hPa | 0 mm | - | 755 W/m² | - |
| 1778192717 | 25° C | 18% | 1016 hPa | 0 mm | - | 778 W/m² | - |
| 1778192117 | 25° C | 16% | 1016 hPa | 0 mm | - | 796 W/m² | - |
| 1778191515 | 25° C | 20% | 1016.9 hPa | 0 mm | - | 816 W/m² | - |
* Rain latest hour (hover to see other rain measurements)
** Current wind speed in m/s (hover to see current wind gust speed)